STARLINK-34340, 64163

Orbit data source: Space-Track

STARLINK-34340, 64163 is a payload satellite owned by SpaceX/Seattle (US) in SSO that was launched on Tue, 27 May 2025 UTC via an FALCON 9 launch vehicle from the Air Force Western Test Range (AFWTR). Payload-class satellites include a variety of spacecraft equipped with specific instruments for various scientific and technological missions. These include communications satellites like Starlink; space stations such as the ISS; scientific satellites like the Hubble; Earth observation satellites from companies like Planet Labs, Umbra, and HawkEye 360; GPS; miniature CubeSats for education and research; and military/defense satellites.

Loading next visibility...
Identifier
64163, 2025-112T
Orbit
SSO
Country
Flag of USUS
Related business
Manufacturer
SpaceX/Seattle
Mission
Operational Commercial Communications
Bus & Motor
STARLINK V2MO, Unknown motor
Mass
575 kg wet, ~530 kg dry
Launch date (UTC)
2025-05-27 (1 year ago)
Launch vehicle
FALCON 9
Launch site
Air Force Western Test Range (AFWTR)
Object type
Payload
Rocket body
Debris
Shape & HBR
Box + 2 Pan, 17.7 m
Radar Cross Section
36.964 m², Large (>1 m²)

Expand to show TLE details & history
Last TLE update: 16 hours ago

TLE from 16 hours ago
0 STARLINK-34340
1 64163U 25112T   26145.10153090 -.00000938  00000-0 -60967-4 0  9992
2 64163  97.4498 196.4407 0000902 103.9729 256.1598 15.05645052 54802
Epoch: 2026-05-25T02:26Z
TLE epoch observation values (Epoch: 2026-05-25T02:26:12.269Z)
Latitude
-0.0001°
Longitude
-82.80456°
Altitude
552.745 km
Speed
7.585 km/s
True Right ascension
13h 05m 45s
True Declination
0° 00' 00"
Sunlit
Object was in full shadow at epoch
Visualization orbit readout
Latitude
Unknown
Longitude
Unknown
Altitude
Unknown
Speed
Unknown
Apparent Right ascension
Unknown
Apparent Declination
Unknown
Sunlit
N/A
Visualization observer readout
Local Sidereal Time
03:50:30
Azimuth
Unknown
Elevation
Unknown
Doppler factor
Unknown
Orbital elements
Apogee altitude
547.138 km
Perigee altitude
545.889 km
Semi-major axis
6,924.65 km
Eccentricity
0.00009
Inclination
97.4498°
RAAN
196.4407°
Arg. of periapsis
103.9729°
True anomaly
256.14976°
Mean anomaly
256.1598°
Eccentric anomaly
256.15478°
Mean motion
3.76657 °/min
Orbital period
95.58 mins
BSTAR
-0.000060967
Loading maneuver chart data...
Computing Atmospheric mass density...
Loading historical data...
Loading historical data...
Loading historical data...
Loading historical data...
Loading historical data...
Loading historical data...
Loading historical data...

Documentation

Showing up to 5 results
|